Waarnemingen

Advertentie
Mijn weer
Terschelling/Hoorn, Nederland (6251): temperatuur & dauwpunt: 16.11.2017 08:00:00 - 22.11.2017 08:00:00 (CET)Terschelling/Hoorn, Nederland (6251): temperatuur 5cm: 16.11.2017 08:00:00 - 22.11.2017 08:00:00 (CET)Terschelling/Hoorn, Nederland (6251): windsnelheid & windstoten: 16.11.2017 08:00:00 - 22.11.2017 08:00:00 (CET)Terschelling/Hoorn, Nederland (6251): windrichting: 16.11.2017 08:00:00 - 22.11.2017 08:00:00 (CET)Terschelling/Hoorn, Nederland (6251): luchtdruk: 16.11.2017 08:00:00 - 22.11.2017 08:00:00 (CET)Terschelling/Hoorn, Nederland (6251): zicht: 16.11.2017 08:00:00 - 22.11.2017 08:00:00 (CET)Terschelling/Hoorn, Nederland (6251): neerslag: 16.11.2017 08:00:00 - 22.11.2017 08:00:00 (CET)
Datum & Tijd tt [°C] td [°C] tt 5cm [°C] ff [km/u] ff [kn] fx [km/u] fx [kn] dd ppp [hPa] vv [km] rr [mm]
22.11.2017 08:00:00 11,1 10,4 11,0 37 20 - - ZW 1000,6 7 -
22.11.2017 07:00:00 11,3 10,4 11,1 40 21 - - ZW 1000,0 8 0,0
22.11.2017 06:00:00 10,9 10,1 10,7 32 18 50 27 ZZW 1000,5 8 0,0
22.11.2017 05:00:00 11,3 10,4 11,0 36 19 54 29 ZW 1000,9 8 0,0
22.11.2017 04:00:00 11,4 10,4 10,7 36 19 - - ZW 1000,8 9 0,1
22.11.2017 03:00:00 11,0 10,6 10,6 36 19 54 29 ZW 1001,0 2,7 0,9
22.11.2017 02:00:00 10,7 10,4 10,6 36 19 43 23 ZZW 1001,3 3,0 0,5
22.11.2017 01:00:00 10,5 10,0 10,4 32 18 - - ZZW 1001,9 7 0,7
22.11.2017 00:00:00 10,5 9,9 10,4 29 16 43 23 ZZW 1002,9 6 0,2
21.11.2017 23:00:00 10,2 9,4 10,0 29 16 36 19 ZZW 1003,3 9 0,0
21.11.2017 22:00:00 9,9 9,3 9,7 29 16 - - ZZW 1003,9 7 0,0
21.11.2017 21:00:00 10,2 9,5 9,9 25 14 32 18 ZW 1004,3 9 0,0
21.11.2017 20:00:00 10,5 9,7 10,2 29 16 40 21 ZW 1004,8 10 0,1
21.11.2017 19:00:00 10,5 10,1 10,4 32 18 - - ZW 1005,1 4,1 0,2
21.11.2017 18:00:00 10,9 10,5 10,7 32 18 43 23 WZW 1005,4 4,3 1,0
21.11.2017 17:00:00 11,1 10,8 10,9 29 16 40 21 WZW 1005,7 2,5 0,1
21.11.2017 16:00:00 10,9 10,7 10,8 22 12 - - WZW 1005,6 3,6 0,0
21.11.2017 15:00:00 10,3 10,2 10,4 14 8 18 10 ZW 1005,9 6 1,5
21.11.2017 14:00:00 9,1 9,0 9,3 11 6 14 8 Z 1006,7 3,4 2,5
21.11.2017 13:00:00 9,7 9,6 9,8 11 6 - - Z 1007,3 1,8 0,8
21.11.2017 12:00:00 10,0 9,8 10,1 11 6 18 10 ZZW 1008,1 2,4 0,4
21.11.2017 11:00:00 10,0 9,8 10,2 11 6 18 10 ZZW 1008,2 4,6 0,3
21.11.2017 10:00:00 10,4 10,1 10,3 14 8 - - ZW 1008,5 4,7 0,1
21.11.2017 09:00:00 10,6 10,2 10,4 14 8 22 12 WZW 1008,4 8 0,0
21.11.2017 08:00:00 10,2 9,9 10,1 11 6 22 12 WZW 1008,1 7 0,0
21.11.2017 07:00:00 10,5 10,0 10,2 18 10 - - WZW 1008,1 10 0,0
21.11.2017 06:00:00 10,5 10,0 10,2 18 10 25 14 WZW 1008,1 12 0,0
21.11.2017 05:00:00 10,6 10,1 10,3 18 10 22 12 W 1008,3 3,3 0,2
21.11.2017 04:00:00 10,5 10,0 10,2 11 6 - - W 1008,2 12 0,0
21.11.2017 03:00:00 10,3 9,8 10,0 14 8 25 14 W 1008,2 13 0,1
21.11.2017 02:00:00 10,5 9,8 10,2 18 10 25 14 W 1008,1 8 0,0
21.11.2017 01:00:00 10,5 9,9 10,2 18 10 - - W 1008,3 18 0,2
21.11.2017 00:00:00 10,5 9,7 10,0 14 8 29 16 W 1007,9 14 0,0
20.11.2017 23:00:00 10,2 9,4 9,5 14 8 25 14 W 1006,7 21 0,1
20.11.2017 22:00:00 10,9 10,4 10,5 18 10 - - W 1007,2 4,7 0,1
20.11.2017 21:00:00 10,9 10,4 10,5 25 14 36 19 W 1006,5 6 0,1
20.11.2017 20:00:00 10,9 10,4 10,5 22 12 32 18 W 1006,1 14 0,2
20.11.2017 19:00:00 10,8 10,4 10,4 22 12 - - W 1006,6 9 0,3
20.11.2017 18:00:00 8,1 8,0 7,8 18 10 25 14 ZZW 1006,7 2,2 1,3
20.11.2017 17:00:00 7,6 7,4 7,4 18 10 36 19 Z 1007,3 2,3 0,7
20.11.2017 16:00:00 7,0 6,7 7,0 25 14 - - Z 1007,9 3,0 0,3
20.11.2017 15:00:00 6,6 6,1 6,5 32 18 43 23 Z 1008,9 3,6 0,1
20.11.2017 14:00:00 6,2 5,5 6,2 36 19 47 25 Z 1010,1 8 0,2
20.11.2017 13:00:00 6,3 5,5 6,3 36 19 - - Z 1011,5 9 0,2
20.11.2017 12:00:00 6,3 5,6 6,3 32 18 43 23 Z 1013,0 10 0,7
20.11.2017 11:00:00 6,0 5,0 5,8 29 16 32 18 Z 1014,3 12 0,6
20.11.2017 10:00:00 5,7 4,0 5,5 18 10 - - ZZW 1014,9 13 0,5
20.11.2017 09:00:00 5,6 4,0 5,3 22 12 29 16 ZW 1015,6 9 0,7
20.11.2017 08:00:00 5,2 3,9 5,0 14 8 29 16 WZW 1016,4 8 0,7
20.11.2017 07:00:00 5,5 3,1 5,2 22 12 - - WZW 1016,9 9 0,3
20.11.2017 06:00:00 7,1 2,8 6,4 25 14 40 21 W 1016,5 17 0,1
20.11.2017 05:00:00 6,8 4,8 6,4 22 12 40 21 W 1016,7 4,6 0,7
20.11.2017 04:00:00 7,6 2,8 7,0 22 12 - - W 1017,1 23 0,0
20.11.2017 03:00:00 7,8 2,9 6,8 25 14 40 21 W 1017,6 21 0,4
20.11.2017 02:00:00 7,9 4,1 7,2 22 12 40 21 WNW 1017,9 20 0,0
20.11.2017 01:00:00 7,5 3,6 6,8 25 14 - - W 1018,3 22 0,0
20.11.2017 00:00:00 7,6 3,0 6,5 22 12 43 23 WNW 1018,4 24 0,1
19.11.2017 23:00:00 7,2 3,7 6,2 22 12 47 25 NNW 1018,5 17 0,2
19.11.2017 22:00:00 7,5 2,0 6,0 22 12 - - WNW 1018,6 19 0,5
19.11.2017 21:00:00 8,2 3,6 7,6 29 16 47 25 NW 1018,4 15 0,1
19.11.2017 20:00:00 8,5 1,6 7,2 29 16 47 25 NW 1017,6 17 0,0
19.11.2017 19:00:00 8,4 2,1 7,5 32 18 - - NW 1017,4 15 0,0
19.11.2017 18:00:00 8,4 2,1 7,3 32 18 50 27 NW 1016,9 14 0,0
19.11.2017 17:00:00 8,7 1,4 7,5 36 19 58 31 NW 1016,6 15 0,0
19.11.2017 16:00:00 8,2 2,1 7,1 36 19 - - NW 1016,1 15 0,4
19.11.2017 15:00:00 9,3 2,9 8,2 32 18 65 35 NW 1015,8 13 0,0
19.11.2017 14:00:00 9,4 4,0 8,7 36 19 61 33 WNW 1015,6 11 0,0
19.11.2017 13:00:00 9,5 4,1 8,6 36 19 - - NW 1015,4 13 0,0
19.11.2017 12:00:00 9,5 2,5 8,8 40 21 65 35 NW 1014,8 12 0,0
19.11.2017 11:00:00 8,5 4,5 7,9 36 19 58 31 NW 1014,5 11 0,0
19.11.2017 10:00:00 8,8 3,9 7,6 40 21 - - NW 1013,8 14 0,7
19.11.2017 09:00:00 7,3 3,7 6,4 36 19 72 39 NW 1013,4 13 0,3
19.11.2017 08:00:00 7,6 3,8 7,4 43 23 72 39 NW 1013,0 12 0,1
19.11.2017 07:00:00 8,7 2,9 7,7 43 23 - - WNW 1012,2 11 0,0
19.11.2017 06:00:00 8,6 2,4 7,4 40 21 61 33 NW 1012,0 14 0,0
19.11.2017 05:00:00 8,1 3,2 7,0 40 21 68 37 WNW 1012,1 15 0,0
19.11.2017 04:00:00 6,4 3,4 5,9 36 19 - - NW 1012,2 11 0,0
19.11.2017 03:00:00 8,1 3,7 7,3 36 19 54 29 WNW 1012,0 17 0,0
19.11.2017 02:00:00 7,2 3,8 6,5 36 19 58 31 WNW 1012,2 17 0,4
19.11.2017 01:00:00 7,2 2,6 6,3 32 18 - - WNW 1012,4 19 0,0
19.11.2017 00:00:00 7,4 1,3 6,8 36 19 54 29 WNW 1012,9 21 0,0
18.11.2017 23:00:00 8,0 -1,0 6,8 36 19 50 27 WNW 1012,9 20 0,0
18.11.2017 22:00:00 7,7 0,8 7,1 32 18 - - WNW 1013,2 19 0,0
18.11.2017 21:00:00 6,5 -0,3 5,6 29 16 65 35 W 1013,2 18 0,0
18.11.2017 20:00:00 7,5 -0,6 6,6 32 18 54 29 WNW 1013,5 21 0,0
18.11.2017 19:00:00 7,8 0,6 6,9 29 16 - - WNW 1013,7 20 0,0
18.11.2017 18:00:00 7,5 0,0 6,5 29 16 61 33 W 1014,0 23 0,0
18.11.2017 17:00:00 7,6 -1,0 6,8 32 18 47 25 WNW 1014,0 21 0,0
18.11.2017 16:00:00 8,0 -1,6 6,9 29 16 - - NW 1013,9 27 0,0
18.11.2017 15:00:00 8,4 0,5 7,6 29 16 47 25 WNW 1013,9 25 0,0
18.11.2017 14:00:00 8,2 2,3 8,1 32 18 54 29 WNW 1013,9 20 0,0
18.11.2017 13:00:00 7,1 3,3 6,5 32 18 - - NW 1014,2 19 0,0
18.11.2017 12:00:00 7,8 4,2 7,5 32 18 54 29 WNW 1013,7 19 1,2
18.11.2017 11:00:00 7,4 5,9 7,1 29 16 83 45 NW 1014,0 6 0,9
18.11.2017 10:00:00 8,6 4,9 8,1 43 23 - - W 1014,1 14 0,0
18.11.2017 09:00:00 8,1 5,1 7,5 40 21 61 33 W 1014,4 13 0,0
18.11.2017 08:00:00 8,0 4,5 7,0 36 19 61 33 W 1014,7 18 0,2
18.11.2017 07:00:00 8,2 5,1 7,4 36 19 - - W 1015,5 15 0,0
18.11.2017 06:00:00 8,6 3,9 8,0 40 21 50 27 W 1016,4 25 0,0
18.11.2017 05:00:00 8,3 4,5 7,8 29 16 47 25 W 1017,3 20 0,0
18.11.2017 04:00:00 8,1 3,9 7,5 29 16 - - WZW 1018,2 22 0,0
18.11.2017 03:00:00 8,1 3,5 7,5 29 16 43 23 WZW 1019,4 28 0,0
18.11.2017 02:00:00 7,7 3,5 7,2 29 16 36 19 WZW 1020,0 26 0,0
18.11.2017 01:00:00 7,9 2,6 7,3 22 12 - - WZW 1020,8 45 0,0
18.11.2017 00:00:00 8,4 1,5 7,5 22 12 36 19 WZW 1021,5 23 0,0
17.11.2017 23:00:00 7,8 2,6 7,1 25 14 36 19 W 1022,1 30 0,0
17.11.2017 22:00:00 7,5 2,4 6,8 22 12 - - WZW 1022,4 28 0,0
17.11.2017 21:00:00 8,2 3,4 7,3 22 12 36 19 WZW 1023,0 27 0,0
17.11.2017 20:00:00 8,0 4,1 7,5 18 10 29 16 WZW 1023,4 29 0,0
17.11.2017 19:00:00 7,7 3,8 7,0 18 10 - - WZW 1023,9 27 0,0
17.11.2017 18:00:00 7,8 3,9 7,2 18 10 25 14 W 1024,4 32 0,0
17.11.2017 17:00:00 6,8 2,9 6,0 18 10 29 16 W 1024,8 30 0,0
17.11.2017 16:00:00 7,5 4,5 7,1 18 10 - - WZW 1025,1 28 0,0
17.11.2017 15:00:00 8,6 3,5 8,2 22 12 32 18 W 1025,0 25 0,0
17.11.2017 14:00:00 7,7 4,7 7,7 22 12 40 21 WZW 1025,9 15 0,1
17.11.2017 13:00:00 9,6 4,1 9,2 25 14 - - W 1026,2 25 0,0
17.11.2017 12:00:00 10,3 3,3 9,6 22 12 32 18 W 1026,3 25 0,0
17.11.2017 11:00:00 8,0 3,1 7,4 14 8 22 12 W 1026,7 21 0,0
17.11.2017 10:00:00 7,3 4,9 7,0 14 8 - - WZW 1026,6 22 0,0
17.11.2017 09:00:00 7,9 3,1 6,8 11 6 22 12 W 1026,5 25 0,0
17.11.2017 08:00:00 3,7 0,5 1,5 11 6 22 12 W 1026,3 26 0,0
17.11.2017 07:00:00 2,8 0,5 0,6 11 6 - - W 1026,0 16 0,0
17.11.2017 06:00:00 3,0 1,3 1,2 7 4 14 8 W 1025,7 21 0,0
17.11.2017 05:00:00 5,7 2,1 4,3 11 6 22 12 W 1025,5 27 0,0
17.11.2017 04:00:00 6,5 1,3 4,8 11 6 - - WNW 1025,2 29 0,0
17.11.2017 03:00:00 7,2 1,7 5,9 14 8 25 14 WNW 1025,2 35 0,0
17.11.2017 02:00:00 7,7 1,3 5,1 14 8 22 12 NW 1024,7 27 0,0
17.11.2017 01:00:00 7,7 1,4 5,6 14 8 - - NNW 1024,3 27 0,0
17.11.2017 00:00:00 8,4 1,7 7,0 18 10 32 18 NNW 1024,0 26 0,0
16.11.2017 23:00:00 9,0 3,4 7,5 18 10 36 19 NNW 1023,4 22 0,0
16.11.2017 22:00:00 9,2 4,2 8,0 22 12 - - NNW 1023,0 23 0,0
16.11.2017 21:00:00 9,7 4,1 8,7 25 14 40 21 NW 1022,0 17 0,0
16.11.2017 20:00:00 9,9 7,7 8,9 14 8 29 16 WNW 1021,1 16 0,2
16.11.2017 19:00:00 9,0 6,9 8,7 29 16 - - NW 1020,5 10 0,3
16.11.2017 18:00:00 10,9 9,3 10,1 22 12 32 18 W 1019,6 18 0,0
16.11.2017 17:00:00 9,8 9,5 9,3 18 10 29 16 ZW 1019,6 7 0,0
16.11.2017 16:00:00 10,0 9,6 9,8 22 12 - - ZZW 1019,2 3,4 0,0
16.11.2017 15:00:00 10,3 9,9 10,1 25 14 36 19 ZZW 1019,2 2,5 0,9
16.11.2017 14:00:00 9,9 9,6 9,8 25 14 32 18 Z 1019,6 2,1 0,4
16.11.2017 13:00:00 9,9 9,5 9,9 25 14 - - Z 1019,9 2,2 0,0
16.11.2017 12:00:00 9,7 9,3 10,0 25 14 36 19 Z 1020,1 3,0 0,0
16.11.2017 11:00:00 9,5 9,1 9,4 25 14 36 19 Z 1020,8 3,3 0,0
16.11.2017 10:00:00 9,3 9,0 9,3 22 12 - - Z 1020,8 2,1 0,0
16.11.2017 09:00:00 9,6 9,2 9,4 22 12 29 16 Z 1020,8 4,5 0,0
16.11.2017 08:00:00 9,4 9,1 9,3 22 12 29 16 ZZW 1020,8 2,6 0,0

tt = temperatuur
td = dauwpunt
tt 5cm = temperatuur 5cm
ff = windsnelheid
fx = windstoten
dd = windrichting
ppp = luchtdruk
vv = zicht
rr = neerslag

Weerstations in de omgeving